Location: ????????
(56.1167°N, 38.6333°E)
Time: 20:51:28
(UTC+00:00)

ARIANE 6 FM1 Upper Stage - Pass Details

Date: 18 November 2025
Orbit: 522 x 611 km, 62.0° (Epoch: 14 December)

Event Time Altitude Azimuth Distance (km) Brightness Sun altitude
Rises 14:40:05 0° 267° (W) 2,664 7.8 -11.8°
Reaches altitude 10° 14:42:23 10° 275° (W) 1,770 6.4 -12.2°
Maximum altitude 14:46:08 40° 346° (NNW) 790 3.4 -12.7°
Enters shadow 14:48:38 18° 48° (NE) 1,321 4.0 -13.0°
